This demonstration page uses our WeatherBlox Daily Observations layout. Learn more.

Left ArrowRight Arrow

44.89941, -97.11507

Hourly Observations for October 2, 2022

Temp ( °F °C ) Dew Point ( °F °C ) Humidity (%) Winds ( mph kmh ) Pressure ( in mb ) Visibility ( mi km ) Precip ( " mm )
12:53 am 00:53 Clear 59 15 44 6.7 58 58 ESE 8 13 30.19 1022 10 16 0.00 0.00
1:53 am 01:53 Clear 59 15 43 6.1 55 55 ESE 12 19 30.19 1022 10 16 0.00 0.00
2:53 am 02:53 Clear 59 15 42 5.6 53 53 ESE 10 17 30.19 1022 10 16 0.00 0.00
3:53 am 03:53 Mostly Clear 57 13.9 43 6.1 59 59 ESE 10 17 30.19 1022 10 16 0.00 0.00
4:53 am 04:53 Mostly Cloudy 57 13.9 43 6.1 59 59 SE 8 13 30.19 1023 10 16 0.00 0.00
5:53 am 05:53 Mostly Cloudy 60 15.6 41 5 49 49 SSE 15 24 30.18 1022 10 16 0.00 0.00
6:53 am 06:53 Mostly Cloudy 59 15 42 5.6 53 53 SSE 15 24 30.19 1023 10 16 0.00 0.00
7:53 am 07:53 Cloudy 58 14.4 43 6.1 57 57 SSE 12 19 30.21 1023 10 16 0.00 0.00
8:53 am 08:53 Sunny 60 15.6 43 6.1 53 53 SE 15 24 30.19 1023 10 16 0.00 0.00
12:53 pm 12:53 Partly Cloudy 68 20 45 7.2 43 43 SSE 10 17 30.19 1022 10 16 0.01 0.13
1:53 pm 13:53 Mostly Cloudy with Light Rain 67 19.4 46 7.8 47 47 SSE 16 26 30.18 1022 10 16 0.01 0.13
2:53 pm 14:53 Mostly Cloudy 70 21.1 46 7.8 42 42 SSE 17 28 30.15 1021 10 16 0.01 0.13
3:53 pm 15:53 Cloudy 72 22.2 44 6.7 37 37 SSE 13 20 30.16 1021 10 16 0.00 0.00
4:53 pm 16:53 Cloudy 72 22.2 44 6.7 37 37 SE 14 22 30.14 1021 10 16 0.00 0.00
5:53 pm 17:53 Cloudy 71 21.7 42 5.6 35 35 SE 7 11 30.14 1021 10 16 0.00 0.00
6:53 pm 18:53 Partly Cloudy 70 21.1 43 6.1 38 38 ESE 6 9 30.14 1021 10 16 0.00 0.00
7:53 pm 19:53 Partly Cloudy 68 20 42 5.6 39 39 ESE 3 6 30.15 1021 10 16 0.00 0.00
8:53 pm 20:53 Mostly Clear 65 18.3 41 5 41 41 SE 7 11 30.15 1021 10 16 0.00 0.00
9:53 pm 21:53 Clear 65 18.3 39 3.9 38 38 SSE 13 20 30.14 1021 10 16 0.00 0.00
10:53 pm 22:53 Clear 62 16.7 40 4.4 44 44 S 6 9 30.18 1022 10 16 0.00 0.00
11:53 pm 23:53 Clear 61 16.1 41 5 48 48 SSE 10 17 30.16 1021 10 16 0.00 0.00

Powered by AerisWeather